Temperature
8 10 10 10 10 10 10 10 10 10 9 9 9 10 10 10 9 8 8 8 7 7 7 7 7 8 8 8 8 9 9 9 9 9 9 9 9 9 9 9 9 9 9 9
10 10 9 9 9 9 10 10 10 9 8 8 9 9 10 9 8 8 7 7 7 7 6 6 7 7 7 7 8 8 8 8 8 8 8 9 9 9 9 9 9 9 9 9
9 9 8 8 8 9 9 10 9 9 8 8 9 10 10 9 8 7 6 6 6 6 6 6 6 6 7 7 7 7 7 8 8 8 8 8 8 8 8 8 8 8 8 8
8 8 8 8 8 8 9 9 8 8 9 10 9 11 11 9 9 8 6 6 6 5 5 5 6 6 6 6 6 7 7 7 7 7 7 7 7 7 8 8 8 8 8 8
8 7 7 8 8 8 8 8 8 8 8 9 9 9 11 9 9 8 7 6 5 5 5 5 5 5 6 6 6 6 6 6 7 7 7 7 7 7 7 7 7 7 7 7
7 6 6 7 7 7 7 7 7 7 8 8 9 9 11 9 8 8 7 5 5 4 4 4 5 5 5 5 6 6 6 6 6 6 6 6 6 6 6 6 6 7 7 7
7 7 6 6 7 7 7 8 9 9 9 10 8 8 10 8 7 7 6 5 4 4 4 4 4 4 4 5 5 5 5 6 6 6 6 6 6 6 6 6 6 6 6 6
7 8 6 6 6 7 7 7 8 9 10 10 8 9 10 7 6 5 5 4 4 3 3 3 3 3 4 4 4 4 5 5 5 5 5 6 5 5 5 5 5 5 5 5
7 7 5 5 5 6 7 7 7 7 6 8 9 9 8 7 6 5 5 4 3 3 3 3 3 3 3 3 3 4 4 4 5 5 5 5 5 5 5 5 5 5 5 5
5 5 5 5 5 5 6 6 6 7 8 9 10 9 10 7 6 6 5 4 3 3 3 3 3 3 2 3 3 3 3 4 4 4 4 4 4 4 4 4 4 4 4 5
4 4 5 5 5 6 5 5 6 6 6 8 9 10 8 7 6 5 5 3 3 2 2 2 2 2 2 2 2 2 2 3 3 3 3 3 3 4 4 4 4 4 4 4
4 4 5 5 4 4 5 5 6 6 6 6 8 9 6 5 5 4 4 2 2 1 1 1 1 1 1 1 1 2 2 2 2 2 3 3 3 3 3 3 3 4 4 3
3 3 5 6 5 4 4 4 4 4 5 6 7 8 5 4 4 3 2 2 1 1 1 0 1 1 1 1 1 1 1 1 2 2 2 2 2 2 2 3 3 3 3 3
3 2 4 7 7 4 4 3 3 4 5 6 6 7 6 5 4 3 2 1 1 0 0 0 0 0 0 0 0 0 1 1 1 1 2 2 2 2 2 2 2 2 2 2
2 2 2 3 3 3 3 3 2 3 4 5 6 5 5 4 3 2 1 0 -0 -0 -0 -0 -0 -0 -0 -0 0 0 0 1 1 1 1 1 1 1 1 1 1 1 1 2
0 1 1 2 2 2 2 3 3 3 3 3 4 4 3 2 1 1 0 -0 -1 -1 -1 -1 -1 -1 -0 -0 -0 -0 -0 0 0 0 0 1 1 1 1 1 1 1 1 1
0 0 2 4 2 2 3 2 2 2 2 2 3 3 2 2 1 1 -0 -1 -1 -1 -1 -1 -1 -1 -1 -1 -0 -0 -0 -0 -0 -0 -0 -0 0 0 -0 0 0 0 0 0
-1 0 1 2 2 4 4 1 2 1 1 1 1 1 1 0 -0 -1 -1 -1 -2 -2 -2 -2 -1 -1 -1 -1 -1 -1 -1 -1 -1 -1 -1 -1 -1 -1 -1 -1 -1 -1 -0 -0
-1 0 1 2 3 4 3 1 0 0 1 0 -0 -0 -1 -1 -1 -0 -1 -2 -2 -2 -2 -2 -1 -1 -1 -1 -1 -1 -1 -1 -1 -1 -1 -1 -1 -1 -1 -1 -1 -1 -1 -1
-1 -1 1 1 3 4 3 1 -1 0 1 -0 -1 -1 -2 -1 1 1 -2 -2 -2 -2 -2 -2 -1 -2 -1 -1 -1 -1 -2 -2 -2 -2 -2 -2 -2 -2 -2 -2 -2 -2 -2 -2
-1 -0 0 1 2 3 1 -1 -1 2 2 -1 -2 -2 -3 -2 -1 -2 -2 -2 -2 -2 -2 -2 -2 -2 -2 -2 -2 -2 -2 -2 -2 -2 -2 -2 -2 -2 -2 -2 -2 -2 -2 -2
0 1 0 1 2 2 -1 -1 0 0 -2 -2 -3 -3 -3 -3 -3 -3 -3 -3 -3 -2 -2 -2 -2 -2 -2 -2 -2 -2 -2 -2 -2 -2 -2 -3 -3 -3 -3 -3 -3 -3 -3 -3
-1 0 1 1 2 -1 -2 -2 -2 -2 -3 -3 -3 -3 -4 -4 -4 -3 -3 -3 -3 -3 -3 -2 -2 -3 -3 -3 -3 -3 -3 -3 -3 -3 -3 -3 -3 -3 -3 -4 -4 -4 -4 -4
-1 -3 -1 -1 -1 -2 -3 -3 -3 -3 -3 -3 -3 -3 -4 -4 -4 -4 -4 -3 -3 -3 -3 -3 -3 -3 -3 -3 -3 -3 -3 -3 -3 -3 -3 -3 -4 -4 -4 -4 -4 -5 -5 -5
-1 -2 -2 -2 -2 -2 -2 -3 -3 -3 -3 -3 -3 -3 -4 -4 -4 -4 -4 -4 -4 -3 -3 -3 -3 -3 -3 -3 -3 -3 -3 -4 -4 -4 -4 -4 -4 -4 -5 -5 -5 -5 -5 -5
-2 -3 -1 0 -1 -2 -2 -2 -3 -3 -3 -3 -3 -3 -4 -4 -4 -4 -4 -4 -4 -4 -4 -4 -4 -4 -4 -4 -4 -4 -4 -4 -4 -4 -4 -5 -5 -5 -5 -5 -5 -5 -5 -5
Wind_Speed
0 2 3 4 4 4 5 6 8 6 3 5 8 10 8 5 5 4 4 3 3 3 3 3 3 3 3 2 3 3 3 4 3 3 3 3 3 3 3 3 4 5 6 6
3 3 2 2 3 3 5 6 6 5 3 5 7 9 6 3 3 2 2 2 2 2 3 4 4 3 4 3 2 2 3 4 4 4 3 3 3 2 3 3 4 4 5 5
4 0 1 1 2 3 5 5 5 5 5 4 5 4 3 1 0 2 3 2 2 2 3 4 4 4 4 4 3 2 3 3 3 4 3 3 2 2 3 3 4 4 5 6
2 1 2 2 2 3 5 3 4 4 4 2 2 4 2 1 0 2 3 3 3 4 4 5 5 5 5 4 4 3 3 2 3 4 4 5 4 5 5 4 4 4 5 6
1 1 2 3 3 3 3 3 4 4 4 4 3 4 3 0 1 2 3 3 4 5 6 6 6 6 6 5 4 3 3 2 2 4 6 6 5 5 4 4 5 4 4 5
1 1 2 2 3 2 1 1 1 2 3 4 3 4 3 1 1 2 2 4 5 5 6 6 6 6 6 6 5 4 3 3 2 2 4 6 6 6 5 5 5 4 4 4
1 1 1 1 1 1 1 1 1 2 2 3 2 4 4 1 2 2 2 3 5 5 6 7 7 7 6 6 6 5 3 3 3 2 3 5 5 6 6 5 5 5 4 4
2 2 1 1 1 2 2 2 2 3 3 2 2 5 1 2 2 2 2 3 4 6 6 7 7 7 7 6 6 5 5 4 4 3 3 3 4 4 4 5 4 5 4 4
3 3 0 1 2 2 2 2 1 1 2 3 4 3 2 1 1 2 3 3 4 5 6 7 7 7 7 7 6 5 5 4 4 3 3 3 3 4 4 4 4 4 5 4
2 3 2 1 2 0 1 1 2 2 2 4 4 4 2 1 2 2 3 4 5 6 6 7 7 7 7 6 6 6 5 4 4 4 3 3 3 3 4 4 5 5 5 5
2 2 2 2 3 3 2 2 2 2 2 3 4 2 2 1 1 2 3 4 6 6 7 7 7 6 6 6 6 5 5 5 5 5 4 4 3 3 4 4 4 4 4 4
2 2 3 3 1 2 2 3 3 3 3 3 4 3 3 2 2 3 4 5 5 6 6 6 6 6 6 6 6 6 5 5 5 4 4 4 3 3 3 3 3 3 3 4
2 2 2 2 3 2 2 2 2 1 1 4 5 3 2 2 4 5 5 5 6 6 6 6 6 5 5 6 6 6 5 5 5 4 4 3 3 3 3 2 2 2 3 3
2 3 5 5 2 2 4 4 3 4 4 5 8 8 5 6 7 6 6 6 6 6 6 6 6 6 5 6 6 6 6 5 5 4 3 3 3 3 2 2 2 2 2 3
2 3 4 7 6 4 6 7 7 8 8 7 8 9 10 8 8 7 7 6 6 7 7 7 7 6 6 6 6 6 6 5 4 3 3 3 3 3 2 2 2 1 1 2
1 2 3 4 3 4 6 8 9 9 8 9 11 11 8 8 6 6 6 6 7 7 7 8 7 7 7 7 7 7 6 5 4 3 3 3 3 3 2 2 2 1 1 1
3 3 2 3 2 3 5 6 7 5 5 6 7 7 7 7 7 7 6 6 7 8 9 8 8 8 8 8 7 7 6 4 3 3 3 3 3 2 2 2 2 1 1 1
3 3 1 2 1 4 1 1 3 4 4 5 5 6 6 8 9 7 5 6 7 8 9 9 8 8 8 8 7 6 5 3 2 2 3 2 2 2 2 2 2 2 2 1
3 3 2 1 3 5 3 1 2 3 3 2 5 7 8 8 7 4 3 5 7 8 9 8 7 7 7 7 6 4 3 3 3 3 2 2 2 2 2 2 3 2 2 2
2 2 2 2 3 4 1 1 0 2 3 0 3 6 7 6 5 4 7 9 9 8 7 7 7 7 7 6 5 3 3 3 3 3 3 3 2 2 2 2 2 2 2 2
3 2 4 5 5 5 2 1 2 3 2 2 4 5 5 5 5 7 10 9 8 8 7 7 6 5 6 6 4 3 3 3 3 3 2 3 2 2 2 2 2 2 2 2
5 4 5 5 5 5 2 2 2 2 3 3 4 5 6 7 8 8 8 9 8 7 7 6 5 5 6 5 4 3 4 4 3 2 2 2 3 2 2 2 2 2 2 2
5 4 3 5 4 1 2 2 1 2 3 4 4 5 6 7 7 8 8 8 7 6 6 5 5 5 5 5 4 4 4 4 3 2 2 2 3 3 3 2 2 3 2 2
3 2 4 4 6 4 3 4 4 4 4 5 5 5 5 6 8 8 7 7 7 6 5 5 4 5 5 5 5 4 4 3 2 2 2 2 2 3 3 3 2 2 2 2
3 4 4 6 6 5 6 5 5 5 5 5 5 5 6 6 7 7 7 6 6 5 4 4 4 4 5 6 5 4 4 3 2 2 2 2 2 2 2 3 3 3 3 3
5 5 5 6 5 4 4 4 4 4 5 5 6 6 6 6 7 6 6 5 5 5 4 4 4 5 5 5 5 5 4 3 2 2 2 2 2 2 2 2 3 4 3 5
Wind_Direction
253 210 220 231 241 258 242 250 266 276 287 283 269 273 276 268 252 257 272 279 275 286 312 342 341 330 300 259 251 252 255 235 219 214 212 203 207 206 207 207 201 199 196 191
187 228 268 265 244 239 239 258 276 284 287 280 279 275 268 243 244 275 304 314 303 318 345 360 360 350 340 327 306 275 260 242 222 216 208 206 207 215 218 215 204 204 200 196
211 264 263 222 226 264 258 252 277 293 302 255 279 258 193 175 89 1 352 349 360 356 352 352 356 353 348 333 316 301 277 247 227 214 199 193 194 206 216 221 211 214 208 202
224 255 236 236 261 271 261 271 272 286 281 271 289 274 208 183 245 358 357 1 6 5 1 355 348 345 339 327 316 307 290 260 237 218 208 205 210 214 222 222 217 219 218 209
214 250 244 251 288 273 270 295 267 268 260 269 240 254 264 146 299 332 349 0 9 8 6 358 348 342 336 333 325 315 304 287 254 227 218 216 222 225 220 217 217 220 221 214
269 298 286 278 301 249 262 267 212 223 232 249 231 231 266 215 290 324 350 2 6 2 2 355 351 348 341 342 335 327 316 305 291 258 232 221 221 221 218 220 219 220 223 215
289 203 9 317 292 188 296 259 261 231 227 246 176 236 262 11 351 327 323 346 357 359 357 353 353 348 343 341 335 328 322 314 306 279 249 232 225 225 223 223 225 224 227 223
245 238 195 336 286 249 240 236 235 259 266 275 219 242 255 61 17 4 0 354 359 1 359 352 349 346 343 341 337 333 330 325 323 307 286 260 233 226 230 228 229 234 237 236
229 242 136 326 310 256 205 209 313 270 283 264 245 254 255 133 25 16 14 4 358 351 353 352 353 354 349 347 343 337 336 333 329 319 307 285 252 234 236 235 229 233 237 243
228 246 247 273 208 30 298 169 178 214 256 258 254 252 259 219 294 331 348 346 343 342 347 351 353 354 351 350 350 351 349 340 333 328 317 296 272 247 243 239 229 232 236 239
219 218 233 207 213 217 168 181 215 214 268 264 271 263 31 319 300 293 315 330 335 340 341 344 348 352 352 353 354 354 351 347 341 334 322 306 287 263 248 242 236 233 237 241
199 219 247 234 216 289 239 229 209 235 244 244 267 284 57 17 355 321 322 331 339 342 340 340 342 347 351 352 352 349 346 341 334 325 317 308 297 277 259 250 249 243 241 246
170 192 256 213 190 195 217 226 221 244 238 233 243 261 80 24 348 341 335 332 335 337 334 335 336 341 345 345 344 342 338 333 327 324 321 317 304 290 280 269 259 254 251 249
178 205 233 249 268 201 226 234 222 216 232 247 248 269 286 319 331 334 331 326 324 327 327 329 331 332 334 335 335 334 331 330 325 322 318 314 312 303 301 291 276 265 252 247
185 231 243 266 269 253 246 244 229 227 237 249 269 279 294 314 314 315 322 325 323 326 325 324 322 322 323 325 325 324 322 324 319 311 312 318 324 334 333 310 302 292 267 259
169 227 239 259 248 253 262 258 242 238 241 250 270 281 306 315 314 315 319 322 322 321 320 319 317 317 317 314 314 312 313 317 313 307 311 323 331 344 339 323 319 324 336 332
186 181 205 254 305 283 265 244 220 221 231 234 254 280 316 320 321 313 314 317 317 317 316 315 314 313 310 308 305 303 304 308 310 317 325 327 331 336 330 327 325 326 329 345
174 174 210 277 304 245 276 62 201 215 250 250 268 298 314 312 312 304 308 312 315 316 315 312 312 314 315 312 307 306 312 318 328 332 333 332 327 323 323 323 324 332 342 347
200 184 189 215 259 271 269 219 189 213 262 264 269 290 308 318 309 304 328 324 317 313 309 307 309 311 314 313 308 306 316 323 329 330 339 342 337 339 340 344 344 343 345 343
142 177 198 208 244 254 311 93 117 201 249 4 297 302 313 319 310 323 337 324 319 318 315 316 318 322 325 326 328 335 344 347 343 340 343 346 352 352 352 354 351 342 327 330
159 181 211 224 242 265 325 296 186 222 311 338 305 302 300 291 291 306 314 316 317 317 319 322 323 329 328 329 335 344 347 338 332 338 351 357 356 357 357 355 350 353 347 349
189 188 200 204 224 249 102 140 196 289 337 312 303 300 294 291 298 304 310 315 318 321 323 327 328 329 331 335 339 339 336 333 338 347 -0 7 10 7 1 5 359 359 1 6
214 217 212 212 229 347 160 202 249 293 287 295 296 296 291 290 295 304 309 313 314 316 319 325 326 328 335 341 341 332 327 333 345 356 2 6 10 9 4 6 1 354 351 355
223 228 227 247 255 257 246 251 270 279 279 287 287 286 282 285 292 300 305 309 313 315 318 323 328 330 331 337 337 328 327 333 342 350 355 3 9 10 7 357 354 352 345 339
234 191 222 247 263 274 253 256 271 282 289 292 293 289 286 288 291 294 298 303 306 309 312 317 321 321 324 330 333 338 338 340 339 342 353 356 4 6 2 0 355 349 339 329
219 212 221 244 240 236 264 272 271 271 283 287 293 296 295 289 287 294 297 302 305 308 313 317 323 325 324 328 328 333 334 332 331 340 349 348 352 352 352 357 2 17 359 355
Height
1492 1491 1488 1488 1489 1487 1486 1485 1483 1484 1488 1488 1482 1479 1478 1480 1480 1480 1479 1478 1477 1477 1477 1475 1474 1474 1474 1474 1474 1475 1475 1476 1478 1479 1480 1481 1483 1484 1485 1487 1488 1489 1491 1492
1491 1489 1490 1491 1491 1489 1487 1485 1483 1484 1487 1487 1482 1478 1476 1477 1478 1478 1477 1476 1476 1475 1474 1473 1472 1472 1471 1471 1471 1471 1472 1473 1474 1476 1477 1478 1480 1481 1482 1483 1484 1486 1487 1488
1488 1490 1492 1491 1490 1488 1485 1483 1483 1485 1486 1484 1482 1472 1472 1475 1477 1477 1476 1475 1475 1474 1473 1473 1472 1471 1470 1469 1469 1469 1469 1470 1471 1473 1474 1475 1476 1477 1479 1480 1481 1482 1484 1485
1490 1492 1492 1489 1488 1488 1484 1486 1486 1486 1483 1477 1480 1469 1466 1472 1474 1476 1476 1475 1475 1474 1473 1471 1470 1469 1468 1468 1468 1467 1467 1468 1469 1470 1471 1471 1472 1473 1474 1476 1477 1479 1480 1481
1490 1492 1491 1489 1489 1489 1486 1488 1487 1486 1483 1481 1478 1477 1464 1471 1472 1474 1476 1476 1476 1475 1473 1472 1470 1468 1467 1467 1466 1465 1465 1465 1466 1467 1468 1468 1469 1470 1471 1473 1473 1475 1476 1477
1493 1495 1494 1492 1491 1491 1490 1488 1487 1486 1482 1480 1476 1475 1463 1468 1472 1474 1476 1476 1475 1474 1473 1472 1470 1468 1467 1465 1464 1463 1463 1463 1463 1464 1465 1465 1466 1466 1467 1468 1469 1471 1472 1473
1492 1493 1494 1494 1490 1490 1489 1485 1480 1477 1476 1470 1478 1476 1468 1472 1475 1476 1476 1476 1475 1474 1472 1470 1468 1467 1465 1464 1463 1462 1461 1461 1461 1461 1461 1462 1462 1463 1464 1465 1466 1467 1468 1469
1490 1488 1493 1494 1492 1489 1488 1486 1482 1476 1469 1467 1477 1471 1467 1475 1477 1477 1477 1476 1475 1473 1472 1470 1468 1466 1464 1463 1461 1460 1459 1459 1458 1458 1458 1459 1459 1460 1460 1461 1462 1463 1464 1465
1489 1488 1494 1495 1494 1491 1488 1487 1489 1486 1487 1479 1467 1467 1471 1475 1476 1477 1476 1476 1475 1473 1472 1470 1467 1465 1463 1462 1460 1459 1457 1457 1456 1456 1455 1455 1456 1456 1457 1458 1459 1460 1461 1462
1494 1494 1493 1495 1494 1494 1492 1490 1490 1486 1479 1468 1463 1464 1462 1470 1472 1475 1475 1475 1474 1473 1471 1469 1467 1465 1463 1461 1459 1458 1456 1455 1454 1453 1453 1453 1453 1453 1454 1454 1455 1456 1457 1458
1496 1496 1492 1493 1491 1489 1492 1492 1489 1485 1484 1472 1462 1461 1468 1470 1473 1474 1475 1475 1474 1472 1470 1468 1466 1464 1462 1460 1458 1456 1455 1454 1452 1451 1451 1450 1449 1449 1450 1451 1451 1452 1453 1454
1496 1494 1490 1490 1494 1495 1492 1489 1488 1484 1484 1482 1471 1468 1474 1474 1475 1475 1475 1474 1473 1472 1470 1467 1465 1463 1462 1460 1457 1455 1454 1452 1451 1450 1449 1448 1447 1447 1447 1447 1447 1448 1449 1450
1497 1496 1488 1483 1492 1495 1493 1492 1492 1491 1486 1481 1472 1469 1475 1475 1475 1475 1475 1474 1472 1471 1469 1467 1464 1462 1460 1458 1456 1454 1453 1451 1450 1449 1447 1446 1445 1444 1444 1443 1443 1444 1445 1445
1496 1495 1490 1479 1477 1486 1490 1491 1492 1490 1483 1477 1473 1469 1472 1473 1475 1475 1474 1473 1471 1470 1468 1466 1463 1461 1459 1457 1455 1453 1452 1450 1448 1447 1445 1444 1443 1442 1441 1440 1440 1441 1441 1442
1495 1493 1494 1490 1489 1490 1488 1488 1490 1489 1482 1478 1471 1473 1471 1474 1476 1476 1474 1472 1470 1468 1466 1464 1462 1460 1458 1456 1454 1452 1450 1448 1446 1444 1443 1442 1441 1440 1439 1438 1438 1438 1438 1439
1495 1494 1495 1490 1488 1489 1487 1485 1485 1485 1483 1481 1478 1475 1475 1476 1476 1474 1473 1471 1469 1467 1465 1462 1460 1458 1456 1454 1452 1450 1447 1446 1444 1443 1441 1440 1439 1438 1437 1436 1436 1435 1436 1436
1494 1494 1489 1481 1489 1487 1478 1479 1481 1482 1481 1480 1476 1475 1476 1475 1473 1472 1471 1470 1468 1465 1463 1461 1458 1456 1454 1452 1450 1448 1446 1444 1442 1441 1440 1439 1437 1436 1435 1434 1434 1433 1433 1433
1494 1493 1490 1485 1487 1479 1475 1480 1479 1480 1480 1481 1479 1477 1476 1475 1473 1471 1469 1468 1466 1464 1461 1459 1456 1454 1452 1450 1448 1445 1443 1442 1440 1439 1438 1437 1436 1435 1434 1433 1432 1432 1431 1430
1492 1491 1489 1486 1479 1471 1474 1478 1479 1479 1478 1479 1478 1476 1475 1474 1471 1468 1467 1466 1464 1462 1459 1457 1454 1452 1450 1448 1445 1443 1441 1440 1439 1438 1437 1436 1435 1433 1432 1431 1431 1430 1429 1428
1493 1492 1489 1486 1477 1469 1470 1478 1478 1480 1474 1477 1476 1475 1474 1473 1468 1467 1466 1464 1461 1459 1457 1455 1452 1450 1447 1445 1443 1442 1440 1438 1437 1437 1435 1434 1433 1432 1431 1431 1430 1429 1428 1427
1491 1490 1488 1484 1478 1470 1476 1477 1478 1474 1471 1475 1474 1474 1473 1472 1471 1468 1465 1462 1460 1457 1455 1453 1450 1448 1446 1444 1443 1441 1439 1438 1437 1436 1435 1433 1432 1432 1431 1430 1429 1428 1427 1425
1483 1482 1485 1482 1477 1472 1477 1477 1476 1474 1474 1473 1473 1472 1471 1470 1467 1465 1463 1460 1458 1455 1453 1451 1449 1447 1445 1443 1442 1440 1438 1437 1436 1435 1434 1433 1432 1431 1430 1429 1427 1426 1425 1424
1482 1480 1477 1477 1474 1474 1475 1475 1475 1474 1473 1472 1471 1470 1468 1467 1465 1463 1461 1458 1456 1454 1451 1449 1447 1445 1444 1442 1440 1439 1438 1436 1435 1434 1433 1432 1431 1430 1428 1427 1426 1425 1424 1423
1479 1481 1479 1477 1472 1473 1474 1473 1472 1472 1471 1469 1469 1467 1466 1464 1462 1460 1458 1456 1454 1452 1450 1448 1446 1444 1443 1441 1439 1438 1436 1435 1434 1433 1432 1431 1430 1429 1428 1427 1426 1425 1424 1423
1475 1477 1476 1474 1471 1471 1469 1469 1469 1469 1468 1467 1466 1465 1463 1461 1459 1457 1455 1453 1451 1450 1448 1446 1445 1443 1441 1440 1438 1437 1436 1434 1433 1432 1431 1430 1429 1428 1427 1426 1426 1425 1424 1423
1472 1473 1471 1466 1466 1468 1467 1466 1466 1466 1465 1464 1463 1461 1460 1459 1456 1454 1452 1451 1449 1448 1446 1444 1443 1441 1440 1439 1437 1436 1435 1433 1432 1431 1430 1429 1428 1428 1427 1426 1425 1424 1423 1422